Ft. Stewart, GA

11:35 AM EST on February 23, 2018 (GMT -0500)
Wright Army Air Field

Weather History for KLHW - September, 2014

Change the Weather History Date:

Wednesday, September 17, 2014

  Actual Average Record
Temperature  
Mean Temperature 78 °F -  
Max Temperature 88 °F 87 °F 98 °F (1972)
Min Temperature 69 °F 68 °F 57 °F (1984)
Cooling Degree Days 13    
Growing Degree Days 28 (Base 50)    
Moisture  
Dew Point 70 °F    
Average Humidity 84    
Maximum Humidity 95    
Minimum Humidity 55    
Precipitation  
Precipitation 0.02 in - - ()
Sea Level Pressure  
Sea Level Pressure 29.89 in    
Wind  
Wind Speed 2 mph (ENE)    
Max Wind Speed 15 mph    
Max Gust Speed -    
Visibility 10 miles    
Events Rain , Thunderstorm    
Averages and records for this station are not official NWS values.
T = Trace of Precipitation, MM = Missing Value Source: NWS Daily Summary

Daily Weather History Graph

Daily Weather History Graph

Search for Another Location

Airport or City:

Trip Planner

Search our weather history database for the weather conditions in past years. The results will help you decide how hot, cold, wet, or windy it might be!

Date:

Astronomy

Sep. 17, 2014 Rise Set
Actual Time 7:11 AM EDT 7:29 PM EDT
Civil Twilight 6:46 AM EDT 7:53 PM EDT
Nautical Twilight 6:18 AM EDT 8:22 PM EDT
Astronomical Twilight 5:49 AM EDT 8:51 PM EDT
Moon 1:25 AM EDT (9/17) 3:23 PM EDT (9/17)
Length of Visible Light 13h 06m
Length of Day
12h 18m
Waning Crescent, 35% of the Moon is Illuminated
Sep 17
Waning Crescent
Sep 24
New
Oct 1
First Quarter
Oct 8
Full
Oct 15
Last Quarter

Hourly Weather History & Observations

Time (EDT) Temp. Heat Index Dew Point Humidity Pressure Visibility Wind Dir Wind Speed Gust Speed Precip Events Conditions
12:58 AM 71.2 °F - 68.9 °F 92% 29.95 in 10.0 mi Calm Calm - N/A   Clear
1:58 AM 71.1 °F - 68.9 °F 93% 29.93 in 10.0 mi WSW 4.6 mph - N/A   Partly Cloudy
2:58 AM 72.1 °F - 68.7 °F 89% 29.91 in 10.0 mi West 4.6 mph - N/A   Mostly Cloudy
3:58 AM 71.1 °F - 69.1 °F 93% 29.91 in 10.0 mi Calm Calm - N/A   Mostly Cloudy
4:58 AM 70.3 °F - 68.5 °F 94% 29.91 in 10.0 mi Calm Calm - N/A   Mostly Cloudy
5:58 AM 69.4 °F - 68.0 °F 95% 29.91 in 10.0 mi Calm Calm - N/A   Clear
6:58 AM 69.1 °F - 67.6 °F 95% 29.92 in 10.0 mi Calm Calm - N/A   Clear
7:58 AM 69.3 °F - 67.5 °F 94% 29.93 in 10.0 mi Calm Calm - N/A   Clear
8:58 AM 73.8 °F - 69.6 °F 87% 29.94 in 10.0 mi North 3.5 mph - N/A   Clear
9:58 AM 77.9 °F - 70.5 °F 78% 29.94 in 10.0 mi Calm Calm - N/A   Clear
10:58 AM 80.6 °F 84.4 °F 71.2 °F 73% 29.94 in 10.0 mi Calm Calm - N/A   Clear
11:58 AM 83.5 °F 88.2 °F 70.9 °F 66% 29.93 in 10.0 mi Calm Calm - N/A   Clear
12:58 PM 84.4 °F 89.7 °F 71.2 °F 65% 29.91 in 10.0 mi East 3.5 mph - N/A   Partly Cloudy
2:58 PM 86.0 °F 91.1 °F 70.9 °F 60% 29.87 in 10.0 mi ESE 4.6 mph - N/A   Scattered Clouds
3:56 PM 86.0 °F 91.8 °F 71.6 °F 62% 29.84 in 10.0 mi NNE 5.8 mph - N/A Thunderstorm Thunderstorm
3:58 PM 86.0 °F 91.8 °F 71.6 °F 62% 29.85 in 10.0 mi NNE 4.6 mph - N/A Thunderstorm Thunderstorm
4:11 PM 87.8 °F 92.6 °F 69.8 °F 55% 29.83 in 10.0 mi Variable 2.3 mph - N/A Thunderstorm Partly Cloudy
4:58 PM 81.1 °F 85.4 °F 71.6 °F 73% 29.85 in 10.0 mi ESE 15.0 mph - N/A   Scattered Clouds
5:22 PM 77.0 °F - 68.0 °F 74% 29.84 in 10.0 mi SE 9.2 mph - N/A Rain Light Rain
5:39 PM 77.0 °F - 68.0 °F 74% 29.85 in 10.0 mi East 2.3 mph - N/A   Scattered Clouds
5:58 PM 76.1 °F - 67.5 °F 74% 29.84 in 10.0 mi ESE 2.3 mph - 0.00 in   Scattered Clouds
6:58 PM 75.6 °F - 68.9 °F 80% 29.85 in 10.0 mi ESE 2.3 mph - N/A   Scattered Clouds
7:52 PM 75.2 °F - 69.8 °F 83% 29.87 in 10.0 mi Calm Calm - N/A   Light Drizzle
7:58 PM 75.0 °F - 70.0 °F 84% 29.87 in 10.0 mi Calm Calm - 0.00 in Rain Light Rain
8:08 PM 75.2 °F - 69.8 °F 83% 29.87 in 10.0 mi WNW 3.5 mph - N/A   Overcast
8:13 PM 75.2 °F - 71.6 °F 89% 29.87 in 10.0 mi NNE 4.6 mph - N/A Thunderstorm Thunderstorm
8:28 PM 73.4 °F - 69.8 °F 88% 29.87 in 10.0 mi Calm Calm - N/A   Overcast
8:41 PM 75.2 °F - 69.8 °F 83% 29.87 in 10.0 mi Calm Calm - N/A   Light Drizzle
8:49 PM 75.2 °F - 69.8 °F 83% 29.88 in 10.0 mi NE 1.2 mph - N/A   Mostly Cloudy
8:58 PM 74.7 °F - 70.9 °F 88% 29.89 in 10.0 mi NNE 8.1 mph - 0.00 in   Scattered Clouds
9:23 PM 73.4 °F - 71.6 °F 94% 29.88 in 10.0 mi ENE 1.2 mph - N/A   Mostly Cloudy
9:48 PM 73.4 °F - 71.6 °F 94% 29.90 in 10.0 mi Calm Calm - N/A   Mostly Cloudy
9:53 PM 73.4 °F - 71.6 °F 94% 29.90 in 10.0 mi WSW 5.8 mph - N/A   Mostly Cloudy
9:56 PM 75.2 °F - 71.6 °F 89% 29.90 in 10.0 mi West 4.6 mph - N/A Rain Light Rain
9:58 PM 75.2 °F - 71.6 °F 89% 29.91 in 10.0 mi West 3.5 mph - N/A Rain Light Rain
10:08 PM 75.2 °F - 71.6 °F 89% 29.90 in 9.0 mi Variable 3.5 mph - N/A Rain Light Rain
10:13 PM 75.2 °F - 71.6 °F 89% 29.90 in 8.0 mi Calm Calm - N/A Rain Light Rain
10:18 PM 75.2 °F - 71.6 °F 89% 29.90 in 9.0 mi East 1.2 mph - N/A Rain Light Rain
10:23 PM 75.2 °F - 71.6 °F 89% 29.90 in 10.0 mi Calm Calm - N/A Rain Light Rain
10:24 PM 75.2 °F - 71.6 °F 89% 29.90 in 10.0 mi Calm Calm - N/A Rain , Thunderstorm Light Thunderstorms and Rain
10:29 PM 75.2 °F - 71.6 °F 89% 29.90 in 10.0 mi SE 2.3 mph - N/A Rain , Thunderstorm Light Thunderstorms and Rain
10:38 PM 75.2 °F - 73.4 °F 94% 29.90 in 10.0 mi ENE 3.5 mph - N/A Rain Light Rain
10:47 PM 73.4 °F - 71.6 °F 94% 29.90 in 10.0 mi NNE 1.2 mph - N/A   Overcast
10:58 PM 73.6 °F - 72.0 °F 95% 29.91 in 10.0 mi Calm Calm - 0.02 in   Mostly Cloudy
11:58 PM 73.6 °F - 72.1 °F 95% 29.91 in 10.0 mi Calm Calm - N/A   Mostly Cloudy